Vorticity
4 4 4 5 5 6 7 7 7 6 6 5 5 4 4 8 9 9 7 6 6 6 7 7 7 7 7 8 6 4 3 2 3 4 6 7 6 5 4 4 4 3 1 1 1 3 4 4 4 5 7 8 8 6 4 4 4 4 1 1 1 1 1 1 1 2 3 3 4 5 5 4 3 2 2 2 2 2 2 2 2 3 3 3 3 3 3 4 4 4 5 7 8 9 10 10 9 8 7 5 4 4 4
8 6 6 5 5 6 7 7 7 7 6 6 6 5 5 5 7 9 9 7 7 8 8 6 6 7 6 7 9 9 7 5 4 4 6 7 7 6 4 4 4 4 3 2 2 2 4 4 4 4 5 7 8 8 6 5 6 7 6 3 2 1 1 1 2 2 3 2 3 4 5 5 4 3 2 2 2 2 2 2 2 2 3 3 3 3 3 3 3 4 4 6 8 9 11 11 10 9 8 6 5 4 4
11 9 8 8 8 7 6 7 8 8 7 7 6 6 6 5 6 7 9 7 6 6 7 6 5 4 4 4 7 9 10 8 6 6 6 8 8 8 7 5 4 4 4 4 3 3 3 4 5 5 4 5 7 8 8 6 8 11 13 9 5 2 1 1 2 3 3 2 2 2 4 4 4 3 2 2 2 2 2 2 2 2 2 3 2 2 2 3 3 3 3 4 6 8 10 11 11 10 9 8 6 5 4
10 10 8 7 8 9 10 8 8 8 8 7 7 6 6 6 6 7 10 8 7 7 8 7 6 4 4 4 4 5 8 9 9 8 8 7 8 9 9 7 5 4 4 5 4 4 3 4 5 6 5 5 5 7 9 8 8 9 13 14 10 6 3 2 2 3 3 2 2 2 2 3 4 3 3 2 2 2 2 2 2 2 2 2 3 2 2 2 2 2 2 3 5 7 9 10 11 11 11 9 8 6 5
6 10 12 8 6 8 11 9 8 7 7 7 7 6 6 6 6 6 8 8 8 7 8 8 7 6 4 4 4 4 5 7 8 8 10 6 6 7 9 8 6 5 4 5 6 5 3 3 4 5 6 5 5 4 2 4 6 8 8 12 14 13 9 5 3 3 3 3 3 3 2 3 3 4 3 3 3 2 2 2 2 2 2 2 3 3 3 3 2 2 2 3 4 6 7 9 10 11 11 11 9 8 6
-0 3 9 11 8 5 6 8 7 5 5 6 5 5 5 5 5 4 5 6 7 7 7 7 7 7 5 4 4 3 4 4 4 5 8 6 4 4 6 7 6 5 2 4 6 6 3 2 2 3 5 5 5 4 2 -2 -1 2 4 6 9 11 10 9 7 5 4 4 4 4 3 3 4 4 4 3 3 3 2 2 2 2 3 3 3 4 4 3 3 3 3 3 4 6 7 8 9 11 12 12 11 9 8
-4 -3 -1 3 4 4 3 7 7 7 5 5 5 4 4 4 4 4 3 4 5 6 6 7 7 7 6 5 4 3 3 3 3 3 5 6 5 3 2 4 5 4 1 1 2 4 3 2 2 2 3 5 5 5 4 2 -1 -3 -1 2 5 7 7 8 9 9 7 5 4 4 4 4 4 4 4 4 4 3 3 3 3 4 4 5 5 5 6 5 5 4 4 4 5 6 7 8 8 10 11 12 12 11 9
-1 -3 -5 -3 -1 1 1 4 6 7 6 6 6 5 4 4 4 4 4 4 4 5 5 6 6 7 7 6 5 4 3 2 2 3 4 6 6 4 2 2 3 3 3 0 -0 1 1 1 1 2 3 4 5 5 5 5 3 2 1 -1 2 4 4 4 6 9 10 7 5 4 4 4 5 5 5 5 4 4 3 3 4 4 5 6 7 7 8 8 7 6 5 5 6 7 8 8 8 9 10 11 12 12 11
3 1 -1 -3 -3 -2 -0 1 2 4 6 6 7 6 6 5 4 4 5 5 5 5 5 5 6 6 6 6 6 6 5 4 3 3 5 6 6 6 5 3 3 3 3 2 1 0 0 0 1 2 3 4 5 5 5 6 6 5 4 2 2 3 5 3 3 5 9 8 7 5 5 5 5 5 6 5 5 4 4 3 3 4 5 6 8 8 9 9 9 8 8 7 6 7 8 8 8 8 9 10 12 12 12
8 7 4 2 0 -0 -0 0 1 2 5 5 6 6 6 6 5 5 5 5 6 6 6 6 6 6 6 6 6 6 6 5 4 3 3 6 6 6 7 7 5 4 3 3 3 2 1 1 2 2 4 5 6 6 6 6 6 5 5 4 5 6 7 6 5 6 8 9 8 7 6 5 5 5 6 6 6 5 4 3 2 2 3 4 6 7 8 9 9 10 9 8 7 7 7 8 8 8 9 10 11 12 12
11 11 10 8 6 4 2 2 2 2 3 4 5 5 6 7 7 7 6 7 7 7 7 7 7 6 6 6 6 6 6 5 4 3 1 2 4 6 7 8 8 7 5 4 4 3 3 3 2 3 3 4 5 6 6 6 5 5 5 5 6 8 9 10 10 9 10 10 10 8 6 6 5 5 6 6 6 6 5 3 2 1 1 2 3 4 5 6 8 9 9 9 7 7 6 7 8 8 9 9 10 11 12
10 11 11 11 10 9 7 5 4 4 4 4 4 4 2 2 4 6 6 7 7 7 6 7 7 7 6 6 6 6 5 5 5 5 3 3 4 5 4 6 8 9 8 6 5 4 4 4 3 3 3 3 4 5 7 6 5 3 4 6 9 10 10 10 10 9 9 11 11 10 6 5 5 5 5 6 6 6 6 4 3 2 1 1 1 2 2 3 4 6 7 8 8 7 6 6 7 8 9 9 9 10 11
8 9 10 11 11 11 11 9 8 7 6 5 5 6 6 4 3 2 1 2 3 4 3 4 5 6 6 6 6 6 5 5 5 4 4 2 2 3 3 4 6 8 9 8 7 6 5 4 4 3 3 2 3 4 6 6 4 1 -1 5 9 12 13 12 10 8 7 9 10 10 8 5 4 4 5 5 6 6 6 5 4 3 2 1 1 2 2 3 3 3 4 6 7 7 6 6 7 8 9 9 9 9 10
6 7 7 8 9 10 11 11 10 9 9 8 8 7 7 7 7 5 1 -2 -3 -2 -1 -1 -0 1 3 4 5 5 4 4 4 4 4 3 2 2 3 4 5 7 8 9 8 7 6 5 4 4 3 2 2 3 4 6 5 3 -1 -1 3 7 9 10 10 10 9 10 10 10 11 8 6 4 5 5 5 6 6 6 5 4 3 2 2 3 4 5 4 3 3 4 6 7 7 7 7 8 9 9 8 8 9
6 6 6 6 7 8 9 10 10 9 8 9 10 10 8 7 8 8 7 4 1 -1 -1 -3 -3 -3 -2 0 2 3 4 4 4 4 4 4 4 4 3 3 5 6 6 7 8 8 8 6 6 5 4 3 3 2 3 4 5 5 3 -1 -2 -1 0 1 4 7 10 12 12 12 13 11 8 6 5 5 5 5 6 6 6 5 4 3 3 3 4 6 7 7 5 5 6 7 8 7 7 8 9 9 8 8 8
7 6 6 6 6 6 6 7 8 9 8 7 8 10 11 9 8 8 8 9 8 7 6 3 1 -2 -3 -3 -1 0 2 3 4 4 4 4 5 5 4 3 3 3 3 4 5 7 8 7 7 6 5 5 4 3 3 4 5 6 6 4 1 -2 -3 -2 -1 -0 2 7 9 10 11 10 8 6 5 4 4 4 4 5 5 5 5 4 3 2 2 4 7 10 11 9 8 7 8 8 8 8 9 9 8 8 7
7 7 7 7 6 6 6 6 6 7 8 7 6 6 9 9 9 8 6 7 10 12 14 13 10 6 2 -0 -1 -1 0 2 3 4 4 4 5 5 5 3 2 2 2 1 2 4 6 7 7 7 6 6 5 4 3 3 4 5 6 6 5 4 1 2 0 -2 -3 -0 1 3 7 8 8 7 6 5 4 4 4 4 5 5 5 4 3 2 1 1 4 8 11 10 10 9 8 8 8 8 9 9 9 8 7
6 7 7 7 7 7 7 6 6 5 6 7 6 5 5 7 9 10 9 7 8 10 13 15 14 13 11 7 3 1 -0 0 1 2 3 3 4 5 6 5 4 3 2 1 1 2 4 5 6 7 7 7 6 5 4 4 4 4 4 5 6 6 4 5 3 1 -1 -2 -4 -5 1 6 8 8 8 7 6 5 5 5 5 5 5 5 4 3 1 -1 0 2 5 8 9 9 8 8 8 8 8 9 9 8 7
4 5 5 6 7 7 8 8 7 6 5 5 6 6 5 5 7 9 11 9 8 7 9 10 12 13 14 13 10 6 3 1 1 1 2 2 3 3 4 5 5 5 4 3 2 2 2 4 5 6 7 7 7 6 6 5 4 3 4 5 5 6 5 6 6 5 4 2 -2 -4 -3 2 5 7 8 8 7 6 6 6 6 6 6 6 5 4 2 0 -1 -1 1 5 8 9 8 7 7 8 8 9 9 9 8
4 4 4 4 5 6 7 8 8 8 7 6 5 5 5 5 4 5 7 9 9 8 7 7 8 10 12 13 13 11 8 6 3 2 2 2 2 2 3 4 6 7 7 6 4 3 3 3 5 6 7 7 7 7 7 6 4 3 3 4 5 6 6 6 7 7 6 5 3 2 1 2 3 5 7 7 6 5 6 6 6 7 7 8 7 6 4 2 0 -0 1 4 6 7 7 7 7 7 8 9 10 10 9
5 5 4 4 4 4 5 6 7 8 8 8 6 5 4 5 4 3 2 4 5 6 7 7 8 10 11 11 12 13 13 11 8 6 5 4 3 3 2 2 4 6 8 8 7 5 4 4 5 5 6 7 7 7 7 7 6 4 3 3 4 5 6 7 7 7 6 6 5 4 4 4 5 6 7 6 5 4 4 5 5 6 7 8 8 7 6 4 2 1 1 3 4 6 7 7 7 7 7 8 9 10 10
6 6 6 5 5 5 4 5 5 6 7 8 8 7 6 5 5 4 3 2 2 4 6 8 9 11 12 12 13 13 14 14 13 11 10 9 7 6 4 3 2 3 6 7 7 6 5 5 5 5 6 6 6 7 7 7 6 6 4 2 2 3 5 6 6 6 6 6 5 5 5 5 6 7 7 7 6 5 4 3 4 5 5 7 7 8 7 6 4 2 1 1 2 4 6 7 7 7 7 8 9 10 10
6 7 7 7 6 6 5 5 4 5 5 6 7 8 8 7 7 6 4 3 2 3 5 6 7 9 12 13 14 14 14 15 15 14 12 11 12 11 9 6 3 1 2 4 5 6 5 5 5 5 6 6 6 6 7 7 7 6 6 3 1 1 2 4 5 6 6 6 5 5 5 5 5 6 6 7 7 6 5 4 3 3 4 5 6 7 8 7 5 4 2 2 2 3 5 7 7 7 7 7 8 9 10
6 6 7 7 7 7 7 6 5 5 5 5 5 6 7 8 8 8 7 5 3 1 2 3 3 4 7 10 13 15 14 14 15 15 13 10 10 11 12 9 7 4 1 1 2 4 5 4 4 5 6 7 7 7 7 7 7 7 6 5 2 0 -0 2 3 5 6 6 5 5 4 4 4 4 5 6 7 7 7 5 4 4 4 4 5 6 7 7 7 6 4 3 2 2 3 5 6 7 7 7 7 8 9
5 6 7 7 7 8 8 7 7 6 6 5 5 5 6 7 8 8 8 7 6 3 1 1 0 1 2 4 7 11 12 13 13 13 13 11 9 8 10 10 9 8 4 4 4 6 6 5 4 3 5 7 8 9 9 8 8 7 7 6 4 1 -1 0 2 3 5 5 5 4 3 3 3 3 4 4 6 7 7 6 5 4 4 4 5 6 7 7 7 7 6 5 4 3 2 3 5 7 7 8 7 7 8
4 5 6 6 7 7 7 8 8 8 7 7 6 5 5 5 6 7 8 8 8 7 5 3 2 1 0 0 1 3 6 9 10 10 10 12 11 9 8 9 10 11 10 7 7 7 8 7 5 3 3 5 6 8 9 9 9 8 8 7 6 4 1 -0 0 1 3 4 4 4 3 3 2 2 3 3 4 5 7 7 6 5 4 4 5 6 6 7 7 8 8 7 6 5 3 3 4 6 8 8 8 7 7
3 3 4 5 6 7 7 7 7 8 8 8 7 6 6 5 5 6 6 7 8 8 8 6 5 3 2 1 1 1 1 4 7 8 8 10 10 10 9 9 10 12 13 10 8 6 6 7 7 6 4 3 4 5 7 8 9 9 9 9 8 6 3 1 0 0 1 2 3 3 3 3 3 2 2 3 3 4 6 7 7 6 5 4 4 5 6 6 7 8 8 8 8 7 5 4 4 5 7 7 7 7 7
6 4 3 4 5 5 6 7 7 7 8 8 8 7 7 6 6 6 6 6 7 8 8 8 7 6 4 3 2 2 1 2 4 7 8 8 9 9 9 9 9 9 10 11 10 8 5 6 7 7 7 5 4 4 4 6 8 9 10 10 9 8 6 3 2 1 0 1 1 2 2 3 3 3 3 3 3 4 5 7 7 7 6 5 4 4 4 5 6 7 8 8 8 8 7 5 4 4 5 6 7 7 7
10 8 5 4 4 4 5 6 6 7 7 7 7 7 8 7 7 6 6 6 6 6 7 8 8 8 7 5 4 4 4 4 4 5 7 7 8 8 8 8 8 7 6 8 9 9 8 7 6 7 7 7 6 5 4 5 6 7 9 10 10 9 8 6 4 2 1 1 0 1 1 2 2 3 4 4 4 4 4 5 6 7 7 6 5 4 3 3 4 5 7 7 8 8 8 7 5 4 4 5 6 7 7
13 12 10 7 6 4 4 5 5 6 7 7 7 7 8 8 8 8 7 7 6 6 6 7 7 8 8 7 6 5 4 5 5 5 6 6 7 7 8 8 7 7 6 6 7 8 9 9 8 7 6 7 8 8 7 6 6 6 8 10 10 10 9 7 6 4 3 2 1 0 0 1 2 3 3 4 5 5 5 5 6 7 7 7 7 6 4 3 3 4 5 6 7 7 8 7 6 5 4 5 6 7 7
14 13 12 11 9 7 5 5 5 5 6 6 7 7 8 8 8 9 8 8 7 6 6 6 6 7 8 8 7 6 5 5 5 5 5 6 6 7 7 8 8 8 7 6 6 6 7 8 8 8 6 6 7 8 9 8 8 8 8 9 10 10 10 9 8 6 5 4 3 2 1 1 2 2 3 4 5 5 6 6 6 6 6 6 7 7 7 5 4 3 3 4 5 6 7 7 7 6 5 5 6 7 8
14 14 13 12 11 10 8 6 6 5 5 5 6 7 8 8 8 8 8 8 8 7 6 6 6 6 6 7 8 7 7 6 5 5 5 5 6 6 6 7 8 8 9 8 7 6 5 6 7 8 8 7 7 7 7 8 8 9 9 9 10 11 11 10 9 8 7 6 5 4 3 2 2 3 3 3 4 5 5 6 7 7 7 6 6 6 6 6 6 5 4 4 4 5 6 6 6 6 5 5 6 7 7
16 15 14 13 12 11 10 8 7 6 6 5 5 6 7 8 8 8 8 8 8 8 8 7 6 6 6 6 7 7 8 7 6 5 5 5 5 5 6 6 6 7 8 9 9 8 6 6 6 8 10 9 8 6 5 5 6 7 8 8 9 10 11 11 10 9 8 7 6 5 5 4 4 3 3 4 4 4 5 6 6 7 7 6 6 5 5 6 6 6 6 5 4 4 4 5 6 6 5 5 5 6 7
18 18 16 14 12 11 11 10 8 7 6 6 6 6 7 7 7 7 7 7 8 8 8 8 7 6 6 6 6 7 7 7 7 6 5 5 5 5 5 5 5 5 6 7 8 8 7 6 6 7 9 10 10 8 5 4 3 4 6 7 8 8 10 11 11 10 9 8 7 7 6 5 5 4 4 4 4 4 4 5 6 7 7 7 6 6 5 4 5 6 6 6 6 5 4 5 5 5 5 5 5 6 7
20 20 19 17 15 13 11 10 9 8 7 7 7 7 7 7 7 7 7 7 7 8 8 8 8 7 7 6 6 6 6 7 7 7 6 5 5 5 5 5 5 4 4 5 6 6 7 5 4 4 5 7 9 9 8 6 4 3 3 4 5 6 7 9 10 10 10 9 8 8 7 6 6 5 5 5 4 4 4 5 5 6 7 7 7 6 6 5 4 4 6 7 7 7 5 5 4 5 5 5 5 6 7
19 20 21 21 19 16 13 11 10 9 8 8 8 7 7 7 7 7 7 7 7 7 7 8 8 8 7 7 6 6 6 6 7 7 7 6 5 5 5 5 5 4 4 3 4 4 5 5 4 2 2 4 6 8 9 8 6 4 3 3 3 4 4 6 8 9 10 9 9 9 8 7 7 6 6 5 5 5 5 5 5 5 6 7 7 7 6 6 5 5 5 6 7 8 7 6 5 4 5 5 5 6 7
16 18 20 21 22 21 18 14 11 10 9 8 8 8 7 7 7 8 8 8 8 7 6 7 7 8 8 8 7 7 6 6 6 6 7 6 6 6 5 5 5 4 4 3 3 3 3 4 4 3 2 3 4 6 8 9 8 7 5 5 4 4 4 4 6 7 8 9 9 9 8 8 7 7 6 6 6 5 5 5 5 5 6 6 6 6 6 6 6 5 5 5 7 8 8 7 6 5 4 5 5 5 6
15 16 17 19 21 22 22 18 15 12 10 9 8 8 8 8 8 8 8 8 8 7 7 7 7 7 8 8 8 8 7 6 6 6 6 6 6 6 6 5 5 4 4 4 3 3 2 3 3 3 3 4 4 5 7 8 9 8 7 7 6 6 5 5 5 5 6 7 8 8 8 8 8 7 7 7 6 6 6 5 5 5 5 6 6 6 6 6 6 6 5 5 6 7 8 8 7 6 5 5 5 5 5
17 17 17 18 19 21 23 22 19 16 12 10 9 8 8 8 8 9 9 8 8 8 8 7 7 8 8 8 8 8 8 7 7 6 6 6 6 6 6 6 5 5 4 4 4 3 3 3 3 3 3 4 5 6 7 9 9 9 9 9 8 8 7 7 6 6 6 6 6 7 8 8 8 8 8 7 7 6 6 6 6 5 5 6 6 6 6 6 6 6 6 5 5 6 7 8 7 7 6 5 5 5 5
21 20 20 20 20 20 21 22 22 21 17 13 10 8 7 8 8 9 9 8 8 8 9 8 8 8 8 8 8 8 8 8 7 7 6 6 6 6 6 6 6 5 5 5 4 4 4 4 3 3 3 4 4 5 7 8 9 10 10 10 9 9 8 8 8 7 7 7 6 6 7 8 8 8 8 8 7 7 6 6 6 6 6 6 6 6 6 6 6 6 6 5 5 5 6 7 8 8 7 6 6 6 5
27 26 24 23 23 22 22 22 22 23 22 18 13 9 7 7 8 8 9 9 8 8 9 9 8 8 7 7 8 8 8 8 8 8 7 7 6 6 6 6 6 6 5 5 5 5 5 4 4 4 4 4 4 5 6 7 8 9 10 10 10 10 9 9 9 9 9 8 8 7 7 8 8 8 8 8 7 7 6 6 6 6 6 6 5 5 5 6 6 6 6 6 5 5 5 6 7 8 8 7 7 7 6
33 31 29 28 27 26 25 23 23 23 23 21 18 13 9 7 7 8 8 9 9 9 9 9 9 8 7 7 7 7 7 8 8 8 8 8 7 7 6 6 6 6 6 5 5 5 6 6 5 4 5 5 5 5 5 6 6 7 9 9 9 10 10 9 9 9 10 10 10 9 9 8 8 9 9 8 8 7 7 6 6 6 6 5 5 5 5 5 6 6 6 6 5 5 4 5 6 7 7 8 8 7 7
36 36 34 32 31 30 28 26 25 24 23 23 21 17 13 9 7 7 8 8 9 9 9 9 9 8 8 7 7 7 7 8 8 8 9 8 8 7 7 7 6 6 6 6 5 5 5 6 6 5 5 5 5 5 5 5 5 6 7 8 8 9 9 9 9 10 10 10 11 11 10 10 9 9 9 9 8 8 7 6 6 6 5 5 5 5 5 5 5 5 6 6 6 5 4 4 4 5 5 7 7 7 8
36 37 37 36 35 34 33 31 29 27 25 24 22 20 17 13 9 7 7 7 8 9 9 9 9 9 8 8 7 7 7 7 7 8 8 8 8 8 8 7 7 6 6 7 6 5 4 5 5 5 5 5 5 5 5 5 5 5 5 6 7 7 8 8 9 9 10 10 11 11 11 11 10 10 9 9 9 8 7 7 6 6 5 5 5 5 5 5 5 5 5 5 5 5 5 4 4 4 4 5 6 7 7
30 32 35 36 37 37 37 35 33 31 28 25 23 21 19 16 13 9 7 7 7 8 8 8 9 9 9 8 8 7 7 7 7 7 7 8 8 8 8 8 7 7 7 7 6 6 5 5 5 5 5 5 5 6 6 6 5 5 5 5 5 5 6 7 8 8 9 10 11 11 11 11 11 10 10 9 9 8 8 7 7 6 5 5 5 5 5 5 5 4 5 5 5 5 5 4 4 3 3 4 5 5 6
21 24 28 31 34 36 38 38 38 36 33 29 26 23 21 19 16 13 10 8 7 7 7 7 8 9 9 9 8 8 8 7 7 7 7 7 7 8 8 8 8 7 7 7 7 6 6 6 5 5 5 5 5 5 6 6 6 6 5 5 4 4 4 5 6 7 8 9 10 11 11 11 11 10 10 9 9 9 8 8 7 6 5 5 4 4 4 4 4 4 4 4 4 5 5 4 4 3 3 3 4 4 5
15 17 20 23 27 30 34 37 39 40 39 35 31 28 25 22 19 16 13 10 9 8 7 7 7 8 9 9 9 9 8 8 7 7 7 7 7 7 8 8 9 8 8 8 7 7 7 6 6 6 6 5 5 5 5 6 6 6 5 5 4 4 3 3 4 5 6 8 10 11 12 12 11 11 10 9 9 9 8 8 7 6 6 5 4 4 4 4 4 4 4 4 4 4 4 4 4 3 3 3 3 3 4
11 13 15 17 19 22 26 30 35 39 42 41 38 35 31 27 23 19 16 13 11 9 7 7 7 7 7 8 9 9 9 8 8 7 6 7 8 8 8 8 9 9 9 8 8 7 7 7 7 7 6 6 6 6 6 6 5 5 5 5 5 4 4 3 3 3 4 6 9 12 15 14 13 11 9 9 9 8 8 8 7 7 6 5 4 4 4 4 4 4 4 3 3 3 4 4 4 3 3 3 3 3 3
9 11 13 14 16 18 20 23 27 32 37 41 42 41 38 33 29 24 20 16 13 11 9 8 7 7 7 7 8 8 9 9 9 8 7 8 8 8 9 9 9 9 9 9 8 8 8 7 7 7 7 6 6 6 6 6 6 6 6 5 5 5 4 4 3 2 3 4 8 14 21 19 15 11 9 8 8 8 8 8 8 7 6 5 5 4 4 4 4 4 4 3 3 3 3 3 3 3 3 4 3 3 3
7 8 10 13 15 17 18 19 20 23 28 34 39 43 44 41 37 32 26 21 17 14 13 11 9 7 6 6 6 6 8 9 9 9 9 9 8 7 7 8 8 8 8 8 9 9 8 8 7 7 7 7 7 6 7 7 6 6 6 5 5 5 5 5 4 3 2 2 7 16 27 25 19 12 8 8 8 8 8 8 8 8 7 6 5 4 4 4 4 4 4 4 3 3 3 3 3 3 3 3 4 4 4
6 6 7 9 12 15 18 19 20 20 21 24 30 36 42 45 43 40 33 28 23 18 15 14 12 9 6 6 6 5 6 8 9 10 10 10 8 7 6 5 6 7 8 9 9 9 9 9 8 8 7 7 7 7 7 7 7 7 6 6 6 5 5 5 5 4 3 2 6 15 28 28 22 13 7 7 8 8 8 8 7 6 7 7 6 5 4 4 4 4 4 4 4 3 3 3 3 2 2 3 3 4 5
6 5 4 5 7 11 15 18 20 21 20 20 22 26 32 39 43 44 40 36 30 24 18 17 15 12 8 7 6 6 5 6 7 8 10 10 10 9 8 7 8 8 8 9 9 9 9 10 9 8 8 8 8 8 8 8 8 7 7 7 6 6 5 5 5 5 4 3 5 13 24 26 21 13 7 7 7 8 8 8 7 7 6 6 6 6 5 5 5 5 5 5 4 4 4 3 3 2 2 2 2 3 5
7 6 4 3 3 5 8 13 17 20 22 21 21 21 23 29 36 41 43 42 38 33 25 21 18 16 12 8 6 6 5 5 6 7 9 10 11 11 11 10 9 8 6 7 8 9 9 9 9 9 8 8 8 8 8 8 8 8 8 8 7 6 6 6 6 6 5 4 5 9 17 21 18 13 8 7 7 8 8 8 8 7 7 6 6 6 5 5 5 5 5 5 5 5 4 4 4 3 2 2 2 2 4
6 6 6 4 3 2 3 6 11 16 21 22 22 21 21 23 28 33 39 42 42 40 35 29 23 19 18 13 8 5 4 4 5 6 7 8 9 11 12 10 9 8 7 6 6 7 8 9 9 10 9 8 8 8 8 8 8 9 9 8 8 7 6 6 6 6 6 5 4 6 10 14 14 12 9 8 8 8 8 8 8 7 7 7 6 6 6 5 5 5 5 5 5 5 5 5 5 4 4 3 2 2 2
5 6 7 6 5 3 2 2 5 9 15 20 22 23 22 22 23 26 31 36 40 41 41 38 31 24 22 18 13 8 5 4 4 4 5 6 7 8 10 10 11 11 10 10 10 10 9 9 10 10 10 8 8 8 8 9 8 8 9 9 9 8 7 7 6 6 6 6 5 4 5 8 9 10 10 10 9 9 8 8 8 7 7 7 7 6 6 6 5 5 5 6 6 6 6 6 6 5 5 4 3 2 2
4 5 6 6 6 5 4 2 2 4 8 14 19 21 22 21 21 23 25 30 34 38 40 41 37 31 25 23 19 14 8 5 3 3 4 5 6 7 9 10 11 11 10 9 9 9 8 6 7 8 10 7 7 7 7 9 9 9 8 9 9 9 8 7 7 7 7 6 6 4 3 4 5 7 8 9 10 10 9 9 8 8 7 7 7 7 7 6 6 5 5 6 6 7 7 7 7 6 6 6 5 4 3
5 5 5 6 6 6 6 4 3 2 3 8 14 18 21 21 21 21 23 26 30 33 37 39 39 37 31 27 24 21 15 9 5 2 2 4 5 6 8 9 9 8 8 8 7 6 7 5 5 6 7 7 6 6 6 5 8 12 11 10 9 9 9 8 7 7 7 7 7 6 4 2 2 3 5 7 8 9 10 9 9 8 8 7 7 7 7 7 6 6 5 5 6 7 7 7 7 7 7 7 7 6 5
7 6 5 5 5 6 6 6 4 3 2 4 9 14 18 20 20 20 21 23 26 29 33 36 38 38 36 31 28 26 22 16 10 4 1 3 4 4 5 7 9 10 10 11 10 9 8 8 8 7 6 8 8 7 7 5 6 10 16 16 13 11 9 8 8 7 7 7 7 7 6 3 1 1 1 3 5 7 8 9 9 9 8 8 7 7 7 7 7 7 6 5 6 6 7 7 7 8 8 8 8 7 7
10 8 6 5 5 5 6 6 5 4 3 3 5 9 14 17 19 19 20 21 23 27 31 34 36 37 37 35 32 29 26 21 16 10 5 2 2 3 4 6 7 9 10 10 10 10 10 9 9 9 9 8 8 9 9 6 3 3 9 16 16 13 10 9 8 8 8 8 8 8 7 6 4 2 0 1 2 4 6 7 8 9 9 8 8 8 7 7 7 7 6 6 5 6 6 6 7 7 8 8 8 8 8
14 11 9 7 5 5 5 5 5 5 4 3 4 6 11 15 17 18 18 19 21 25 28 32 35 37 38 36 34 31 29 25 21 16 10 6 3 2 3 4 5 6 7 8 9 9 9 9 9 9 9 8 7 7 8 8 4 -0 -3 10 16 16 13 10 9 8 8 8 8 8 8 8 7 5 3 1 1 1 3 4 6 7 8 9 8 8 7 7 7 7 7 6 6 6 6 6 6 7 7 7 8 8 9
17 15 12 10 7 6 5 5 5 5 5 4 3 4 8 12 15 17 16 17 19 22 27 31 35 37 39 38 36 32 30 28 26 22 16 11 6 3 1 3 4 5 5 7 8 9 9 9 9 8 8 9 9 7 6 7 6 3 -3 1 8 14 14 13 12 10 9 8 8 8 8 8 8 8 8 5 2 1 1 2 3 5 6 7 8 8 8 7 7 7 7 7 6 6 6 6 6 6 7 7 7 7 7
Height
5822 5822 5822 5822 5822 5822 5822 5822 5822 5822 5823 5823 5823 5823 5824 5825 5825 5824 5824 5825 5825 5825 5825 5825 5825 5826 5826 5827 5826 5826 5827 5827 5828 5828 5829 5830 5830 5831 5831 5832 5832 5833 5834 5835 5835 5836 5837 5837 5838 5839 5840 5840 5840 5840 5840 5841 5842 5843 5843 5844 5844 5845 5846 5847 5847 5847 5848 5849 5849 5850 5850 5850 5851 5851 5852 5852 5853 5853 5854 5854 5855 5855 5855 5856 5856 5857 5858 5858 5859 5859 5860 5860 5860 5861 5861 5862 5862 5863 5863 5864 5864 5865 5866
5820 5820 5820 5819 5819 5819 5819 5819 5819 5820 5820 5820 5820 5820 5821 5822 5823 5822 5821 5822 5823 5823 5823 5825 5825 5824 5825 5826 5826 5825 5825 5825 5826 5826 5827 5827 5828 5828 5829 5830 5830 5831 5832 5832 5833 5834 5835 5835 5836 5837 5837 5838 5838 5838 5838 5839 5840 5840 5841 5841 5842 5842 5844 5845 5845 5845 5845 5846 5847 5847 5848 5849 5849 5850 5850 5851 5851 5852 5852 5853 5853 5854 5854 5855 5855 5855 5856 5857 5857 5858 5858 5859 5859 5860 5860 5860 5861 5861 5862 5862 5863 5864 5865
5819 5818 5817 5817 5817 5816 5816 5816 5816 5816 5817 5817 5817 5818 5818 5818 5818 5818 5819 5819 5820 5820 5820 5821 5821 5821 5822 5822 5823 5823 5822 5823 5824 5824 5824 5825 5825 5826 5827 5827 5828 5829 5830 5830 5831 5831 5832 5833 5834 5835 5835 5836 5836 5836 5836 5837 5838 5839 5838 5839 5840 5840 5841 5842 5843 5843 5843 5844 5845 5845 5846 5846 5847 5848 5848 5849 5849 5850 5850 5851 5851 5852 5852 5853 5854 5854 5855 5855 5856 5856 5857 5857 5858 5858 5859 5859 5860 5860 5860 5861 5862 5862 5863
5816 5815 5814 5815 5815 5814 5814 5813 5813 5813 5814 5814 5814 5815 5815 5815 5815 5815 5815 5815 5816 5816 5817 5817 5818 5818 5819 5819 5819 5819 5820 5820 5821 5822 5822 5823 5823 5824 5824 5825 5825 5826 5827 5828 5828 5829 5830 5831 5832 5833 5833 5834 5834 5835 5835 5835 5836 5837 5837 5838 5838 5838 5839 5840 5840 5840 5841 5842 5842 5843 5844 5845 5845 5845 5846 5847 5847 5848 5849 5849 5850 5850 5851 5851 5852 5853 5853 5854 5854 5855 5855 5856 5856 5857 5857 5858 5858 5859 5859 5860 5860 5861 5862
5813 5813 5812 5811 5811 5812 5812 5811 5810 5810 5810 5811 5811 5811 5811 5812 5812 5812 5813 5813 5813 5813 5814 5814 5815 5815 5816 5816 5817 5817 5817 5818 5820 5821 5820 5820 5821 5821 5822 5822 5823 5824 5825 5825 5826 5827 5828 5829 5830 5830 5831 5832 5832 5832 5832 5833 5834 5835 5836 5836 5836 5837 5839 5838 5838 5838 5839 5840 5840 5841 5842 5842 5843 5843 5844 5845 5845 5846 5847 5848 5848 5849 5850 5850 5851 5851 5852 5852 5853 5853 5854 5854 5855 5855 5856 5856 5857 5857 5858 5858 5859 5860 5860
5810 5810 5810 5809 5809 5809 5808 5808 5808 5808 5808 5808 5808 5808 5808 5809 5809 5809 5810 5810 5810 5810 5811 5811 5812 5812 5813 5814 5814 5815 5815 5815 5817 5817 5817 5817 5818 5819 5820 5820 5821 5822 5822 5823 5824 5824 5825 5826 5827 5828 5829 5830 5830 5830 5830 5831 5831 5832 5833 5834 5834 5835 5836 5836 5836 5836 5836 5837 5838 5839 5840 5840 5841 5841 5842 5843 5843 5844 5845 5846 5847 5847 5848 5849 5849 5850 5850 5851 5851 5852 5852 5852 5853 5854 5854 5855 5855 5856 5856 5857 5857 5858 5859
5806 5806 5806 5806 5806 5806 5805 5805 5805 5805 5805 5805 5805 5805 5805 5805 5805 5806 5806 5806 5807 5807 5808 5808 5809 5809 5810 5810 5811 5812 5812 5813 5814 5814 5814 5815 5815 5816 5817 5818 5819 5819 5820 5820 5821 5822 5823 5824 5825 5826 5827 5827 5828 5828 5828 5829 5829 5830 5831 5831 5832 5833 5835 5835 5835 5835 5835 5835 5836 5837 5838 5838 5839 5839 5840 5841 5841 5842 5843 5844 5845 5846 5846 5847 5847 5848 5849 5849 5850 5850 5850 5851 5851 5852 5852 5853 5854 5854 5855 5855 5856 5857 5857
5803 5803 5803 5803 5803 5803 5803 5803 5803 5802 5802 5802 5802 5802 5802 5802 5802 5802 5803 5803 5803 5804 5804 5805 5805 5806 5807 5808 5808 5809 5810 5810 5811 5811 5812 5812 5813 5813 5814 5815 5816 5816 5817 5817 5819 5820 5820 5821 5822 5823 5824 5825 5825 5826 5826 5826 5827 5828 5828 5828 5829 5830 5831 5833 5833 5833 5834 5834 5834 5835 5836 5836 5837 5838 5838 5839 5840 5840 5841 5842 5843 5844 5845 5845 5846 5846 5847 5847 5848 5848 5849 5849 5850 5850 5850 5851 5852 5852 5853 5854 5854 5855 5856
5800 5800 5800 5800 5800 5800 5800 5800 5800 5800 5800 5800 5800 5799 5799 5799 5799 5799 5799 5800 5800 5800 5801 5802 5802 5803 5804 5804 5805 5806 5807 5808 5808 5809 5809 5810 5810 5810 5811 5812 5813 5814 5814 5815 5816 5817 5818 5819 5820 5820 5821 5822 5822 5823 5824 5824 5825 5825 5825 5825 5826 5828 5829 5830 5831 5831 5832 5831 5832 5833 5834 5834 5835 5836 5836 5837 5838 5839 5840 5840 5841 5842 5843 5843 5844 5845 5845 5845 5846 5846 5847 5847 5848 5848 5849 5849 5850 5850 5851 5852 5853 5853 5854
5796 5796 5796 5796 5796 5796 5796 5797 5797 5797 5797 5797 5797 5797 5797 5797 5796 5796 5796 5797 5797 5798 5798 5798 5799 5800 5800 5801 5802 5803 5804 5805 5805 5805 5806 5808 5808 5808 5809 5809 5810 5810 5811 5812 5813 5814 5815 5816 5817 5818 5818 5819 5820 5820 5821 5821 5822 5822 5822 5823 5824 5825 5826 5827 5828 5829 5829 5830 5830 5830 5831 5832 5833 5834 5835 5835 5836 5837 5838 5839 5839 5840 5841 5841 5842 5843 5843 5844 5844 5845 5845 5845 5846 5846 5847 5847 5848 5849 5849 5850 5851 5851 5852
5793 5793 5793 5792 5792 5793 5793 5793 5793 5794 5794 5794 5794 5794 5795 5795 5794 5794 5794 5794 5794 5795 5795 5795 5795 5796 5796 5797 5798 5799 5800 5802 5802 5802 5803 5804 5805 5805 5805 5806 5806 5807 5808 5809 5810 5810 5811 5813 5814 5815 5815 5816 5817 5817 5818 5819 5820 5820 5820 5820 5822 5823 5825 5825 5825 5825 5826 5827 5828 5828 5829 5830 5830 5831 5832 5833 5834 5835 5836 5836 5837 5838 5839 5840 5840 5841 5841 5842 5842 5843 5843 5844 5844 5845 5845 5846 5846 5847 5847 5848 5849 5850 5850
5789 5789 5789 5789 5789 5789 5789 5789 5790 5790 5790 5790 5790 5791 5791 5792 5791 5791 5791 5791 5791 5791 5791 5791 5792 5792 5793 5793 5795 5795 5796 5797 5798 5799 5800 5800 5802 5803 5802 5802 5803 5804 5805 5805 5806 5807 5808 5809 5810 5811 5812 5813 5814 5815 5815 5816 5817 5817 5818 5818 5819 5820 5822 5821 5821 5822 5823 5825 5825 5825 5826 5827 5828 5829 5830 5831 5832 5833 5834 5834 5835 5836 5836 5837 5838 5839 5840 5840 5840 5841 5841 5842 5842 5843 5844 5844 5845 5845 5846 5846 5847 5848 5849
5785 5785 5785 5785 5785 5785 5785 5785 5786 5786 5786 5786 5786 5787 5787 5788 5788 5787 5788 5789 5789 5788 5788 5788 5788 5789 5789 5790 5791 5792 5792 5793 5794 5795 5796 5796 5798 5799 5799 5799 5800 5800 5801 5802 5803 5804 5805 5806 5807 5808 5809 5810 5811 5811 5812 5813 5814 5815 5816 5817 5818 5819 5819 5818 5818 5819 5820 5822 5823 5823 5823 5825 5826 5827 5828 5829 5830 5831 5831 5832 5833 5834 5835 5835 5836 5837 5837 5838 5839 5839 5840 5840 5840 5841 5842 5842 5843 5843 5844 5845 5845 5846 5847
5781 5781 5781 5781 5781 5781 5781 5781 5782 5782 5782 5782 5782 5783 5784 5784 5784 5784 5784 5785 5785 5786 5785 5785 5785 5785 5785 5786 5787 5788 5788 5789 5790 5791 5791 5792 5793 5794 5795 5796 5796 5797 5798 5799 5800 5801 5801 5802 5803 5804 5805 5806 5808 5809 5810 5810 5811 5812 5812 5814 5815 5816 5815 5815 5816 5817 5819 5820 5822 5822 5821 5822 5823 5824 5825 5826 5828 5829 5829 5830 5830 5831 5832 5833 5834 5835 5835 5836 5836 5837 5837 5838 5839 5839 5840 5840 5841 5842 5842 5843 5844 5845 5845
5778 5778 5778 5777 5777 5777 5777 5778 5778 5778 5778 5779 5779 5779 5780 5780 5780 5780 5780 5780 5781 5781 5782 5782 5782 5782 5782 5782 5783 5784 5784 5785 5785 5786 5787 5788 5789 5790 5791 5792 5793 5794 5795 5796 5797 5798 5798 5799 5800 5801 5802 5803 5805 5805 5806 5807 5808 5809 5809 5810 5812 5813 5813 5813 5814 5816 5818 5818 5819 5819 5820 5820 5820 5821 5823 5824 5825 5826 5827 5828 5828 5829 5830 5831 5832 5833 5833 5834 5835 5835 5835 5835 5836 5837 5838 5839 5840 5840 5841 5841 5842 5843 5844
5774 5774 5774 5774 5774 5773 5773 5774 5774 5774 5774 5775 5775 5775 5775 5775 5776 5775 5776 5776 5777 5778 5778 5778 5778 5778 5779 5779 5779 5780 5780 5781 5781 5782 5783 5784 5785 5786 5787 5788 5790 5790 5791 5793 5794 5795 5795 5796 5797 5797 5799 5800 5801 5802 5803 5804 5805 5806 5807 5808 5809 5810 5810 5810 5812 5813 5815 5815 5816 5817 5817 5817 5818 5819 5820 5821 5822 5824 5825 5825 5826 5827 5828 5829 5830 5830 5831 5831 5833 5834 5833 5834 5835 5835 5836 5837 5838 5839 5839 5840 5840 5841 5842
5770 5770 5770 5770 5770 5770 5770 5770 5770 5770 5770 5770 5770 5770 5770 5770 5771 5771 5772 5772 5773 5774 5774 5774 5774 5774 5775 5775 5776 5776 5777 5777 5778 5778 5779 5780 5781 5782 5783 5784 5786 5787 5788 5789 5790 5791 5792 5792 5793 5794 5795 5796 5798 5799 5800 5801 5802 5803 5805 5805 5806 5807 5807 5808 5809 5810 5812 5813 5814 5814 5813 5813 5815 5816 5817 5819 5820 5821 5822 5823 5824 5825 5826 5827 5827 5828 5829 5829 5830 5830 5832 5833 5833 5834 5835 5836 5837 5837 5838 5839 5839 5840 5841
5766 5765 5765 5766 5766 5765 5765 5765 5765 5766 5766 5766 5766 5766 5766 5767 5767 5767 5768 5768 5769 5769 5769 5769 5770 5770 5771 5771 5772 5773 5773 5774 5774 5775 5775 5776 5777 5778 5779 5780 5781 5783 5784 5785 5786 5787 5788 5789 5790 5791 5792 5793 5794 5795 5797 5798 5799 5800 5801 5802 5803 5804 5805 5805 5806 5807 5809 5809 5811 5812 5812 5812 5813 5814 5815 5816 5817 5818 5820 5820 5821 5823 5824 5825 5825 5826 5826 5827 5828 5829 5830 5832 5833 5834 5834 5835 5835 5836 5837 5837 5838 5839 5839
5761 5761 5761 5761 5761 5761 5761 5761 5761 5761 5761 5762 5762 5762 5762 5762 5763 5764 5765 5765 5765 5765 5764 5765 5765 5766 5767 5768 5768 5769 5770 5770 5770 5771 5772 5772 5773 5774 5775 5776 5777 5778 5780 5781 5782 5783 5784 5785 5786 5787 5788 5790 5791 5792 5793 5795 5796 5797 5798 5799 5800 5802 5803 5803 5804 5805 5805 5806 5807 5809 5811 5810 5810 5811 5812 5814 5815 5816 5817 5818 5819 5820 5821 5822 5823 5823 5824 5825 5826 5828 5829 5830 5832 5833 5834 5834 5834 5835 5836 5836 5837 5837 5838
5757 5756 5756 5756 5756 5757 5757 5757 5757 5757 5757 5758 5758 5758 5758 5758 5759 5760 5761 5761 5761 5760 5760 5760 5761 5762 5763 5764 5764 5765 5765 5766 5767 5767 5768 5769 5770 5770 5770 5771 5773 5774 5776 5777 5778 5779 5780 5781 5782 5783 5785 5786 5787 5789 5790 5791 5792 5794 5795 5796 5798 5799 5799 5800 5801 5802 5803 5804 5805 5806 5807 5808 5808 5809 5810 5811 5812 5814 5815 5815 5816 5817 5819 5820 5820 5821 5822 5823 5824 5826 5828 5829 5829 5831 5833 5833 5833 5834 5834 5835 5835 5836 5837
5752 5752 5751 5751 5751 5751 5752 5752 5752 5752 5753 5753 5753 5754 5754 5754 5754 5755 5755 5756 5755 5755 5756 5756 5757 5757 5758 5759 5760 5761 5761 5762 5763 5764 5766 5766 5766 5766 5766 5767 5769 5770 5772 5773 5774 5775 5775 5777 5778 5780 5781 5782 5784 5785 5787 5788 5789 5790 5792 5794 5795 5795 5796 5796 5797 5799 5800 5801 5803 5804 5804 5805 5806 5807 5808 5809 5810 5811 5812 5813 5814 5815 5816 5817 5818 5819 5820 5821 5822 5824 5825 5827 5828 5829 5830 5832 5832 5832 5833 5833 5834 5835 5835
5747 5747 5747 5746 5746 5746 5746 5747 5747 5747 5748 5748 5749 5749 5749 5750 5750 5750 5750 5751 5750 5751 5752 5754 5754 5754 5755 5755 5755 5756 5757 5758 5760 5761 5761 5762 5761 5761 5762 5764 5765 5767 5768 5769 5770 5771 5772 5773 5774 5775 5777 5779 5780 5781 5783 5784 5786 5787 5789 5790 5791 5792 5792 5793 5794 5795 5797 5799 5800 5801 5802 5803 5804 5805 5806 5807 5808 5809 5810 5811 5811 5812 5814 5815 5816 5817 5818 5819 5820 5822 5823 5824 5825 5826 5827 5829 5829 5829 5831 5831 5832 5833 5834
5742 5742 5742 5741 5741 5741 5741 5741 5742 5742 5742 5743 5744 5744 5745 5745 5745 5745 5746 5746 5747 5747 5747 5749 5750 5750 5751 5750 5751 5751 5753 5754 5755 5757 5757 5758 5758 5757 5758 5760 5761 5763 5764 5765 5766 5767 5768 5769 5770 5771 5773 5775 5776 5778 5779 5780 5782 5784 5785 5787 5788 5788 5788 5789 5790 5792 5794 5795 5797 5798 5800 5800 5801 5802 5803 5805 5806 5807 5807 5808 5809 5810 5811 5812 5814 5815 5816 5817 5818 5820 5821 5822 5823 5824 5825 5826 5827 5828 5829 5830 5830 5831 5832
5737 5737 5736 5736 5736 5736 5736 5736 5736 5736 5737 5737 5738 5739 5740 5740 5740 5741 5741 5741 5742 5742 5742 5744 5745 5745 5747 5747 5747 5748 5751 5752 5752 5752 5752 5754 5754 5754 5755 5756 5757 5759 5760 5761 5763 5763 5763 5765 5766 5767 5769 5770 5772 5774 5775 5776 5778 5780 5782 5783 5784 5785 5785 5785 5787 5788 5790 5792 5794 5795 5796 5797 5798 5799 5801 5802 5803 5804 5805 5806 5806 5807 5809 5810 5811 5813 5814 5815 5816 5817 5818 5820 5821 5822 5823 5824 5825 5826 5826 5827 5828 5829 5830
5731 5731 5731 5731 5731 5730 5730 5730 5731 5731 5731 5732 5733 5733 5734 5735 5735 5736 5736 5736 5737 5737 5738 5739 5740 5740 5741 5742 5743 5745 5747 5747 5747 5747 5749 5750 5750 5750 5752 5752 5753 5755 5756 5758 5759 5760 5760 5760 5762 5764 5765 5766 5768 5770 5771 5772 5774 5776 5778 5779 5780 5781 5782 5782 5784 5785 5787 5789 5791 5792 5793 5794 5795 5797 5799 5799 5800 5801 5802 5803 5804 5805 5806 5807 5809 5810 5812 5813 5814 5815 5816 5817 5819 5820 5820 5821 5822 5823 5824 5825 5826 5827 5828
5726 5725 5725 5725 5725 5725 5725 5725 5725 5725 5726 5726 5727 5728 5728 5729 5730 5730 5731 5731 5732 5733 5733 5734 5735 5735 5736 5737 5738 5740 5742 5742 5742 5743 5744 5745 5746 5746 5747 5748 5749 5750 5752 5753 5754 5755 5756 5757 5758 5760 5761 5763 5764 5766 5767 5768 5770 5772 5774 5775 5776 5778 5779 5779 5780 5782 5784 5785 5787 5789 5790 5791 5793 5794 5795 5796 5797 5798 5798 5800 5801 5802 5803 5805 5806 5808 5809 5810 5811 5812 5814 5815 5816 5817 5818 5819 5820 5821 5822 5823 5824 5825 5825
5720 5720 5719 5719 5719 5719 5719 5719 5720 5720 5720 5721 5721 5722 5722 5723 5724 5725 5726 5726 5727 5728 5728 5729 5730 5730 5731 5732 5733 5735 5737 5736 5737 5738 5739 5740 5741 5742 5743 5744 5746 5747 5747 5748 5749 5750 5752 5753 5755 5756 5757 5759 5760 5762 5763 5764 5766 5768 5770 5771 5773 5774 5775 5776 5777 5779 5780 5782 5784 5785 5787 5788 5789 5790 5791 5792 5794 5795 5796 5797 5798 5799 5800 5802 5803 5805 5806 5807 5809 5810 5811 5812 5813 5815 5815 5816 5817 5818 5819 5820 5821 5822 5823
5713 5713 5712 5713 5713 5713 5713 5713 5714 5714 5714 5715 5716 5716 5717 5718 5719 5720 5720 5721 5721 5722 5723 5724 5725 5725 5726 5727 5728 5729 5731 5731 5732 5734 5735 5736 5736 5737 5738 5739 5741 5742 5743 5744 5745 5746 5747 5749 5750 5752 5754 5755 5756 5758 5759 5760 5762 5764 5766 5768 5769 5771 5772 5773 5774 5775 5777 5779 5780 5782 5783 5784 5785 5786 5787 5788 5790 5792 5793 5794 5795 5796 5798 5799 5800 5802 5803 5805 5806 5807 5808 5810 5811 5812 5813 5814 5815 5816 5817 5818 5819 5820 5821
5705 5705 5705 5706 5706 5706 5706 5707 5707 5708 5708 5709 5710 5710 5711 5712 5713 5714 5715 5715 5716 5716 5717 5718 5719 5720 5721 5722 5723 5724 5725 5726 5727 5728 5730 5731 5732 5733 5734 5734 5735 5736 5738 5739 5741 5742 5743 5745 5746 5748 5750 5751 5752 5754 5755 5757 5759 5760 5762 5764 5766 5767 5768 5770 5771 5772 5773 5775 5777 5778 5780 5781 5782 5783 5784 5785 5786 5788 5789 5790 5792 5794 5795 5796 5798 5799 5800 5802 5803 5805 5806 5807 5808 5809 5810 5811 5812 5814 5815 5816 5817 5818 5819
5698 5698 5698 5698 5699 5699 5700 5700 5701 5701 5702 5703 5704 5705 5705 5706 5707 5708 5708 5709 5710 5710 5711 5712 5713 5715 5715 5716 5718 5719 5720 5721 5722 5724 5725 5726 5727 5728 5729 5730 5731 5732 5734 5735 5736 5738 5740 5741 5742 5744 5745 5747 5749 5750 5751 5753 5755 5756 5758 5760 5762 5763 5765 5766 5767 5769 5770 5771 5773 5775 5776 5778 5779 5780 5781 5782 5783 5785 5786 5788 5790 5791 5792 5794 5795 5796 5798 5799 5800 5802 5803 5804 5805 5806 5808 5809 5810 5811 5812 5814 5815 5816 5817
5690 5690 5690 5690 5691 5691 5692 5693 5694 5695 5695 5696 5698 5699 5700 5701 5701 5701 5702 5703 5704 5705 5705 5706 5708 5709 5710 5711 5713 5714 5715 5716 5717 5718 5720 5721 5722 5723 5724 5725 5726 5728 5729 5730 5732 5735 5736 5737 5738 5740 5741 5743 5745 5746 5747 5749 5751 5752 5754 5756 5758 5760 5761 5762 5764 5765 5766 5768 5770 5771 5773 5774 5775 5777 5778 5779 5780 5781 5783 5785 5786 5788 5790 5792 5793 5794 5795 5796 5797 5799 5800 5801 5803 5804 5805 5806 5808 5809 5810 5811 5813 5814 5815
5682 5682 5683 5683 5683 5684 5685 5686 5686 5687 5688 5690 5691 5692 5694 5695 5695 5695 5695 5696 5697 5698 5699 5700 5701 5703 5704 5705 5707 5708 5710 5711 5712 5713 5715 5716 5717 5718 5719 5720 5722 5723 5725 5726 5728 5730 5731 5733 5734 5735 5736 5738 5740 5742 5743 5745 5746 5748 5750 5752 5754 5756 5757 5758 5760 5761 5763 5765 5766 5768 5770 5771 5772 5773 5775 5775 5777 5778 5780 5781 5783 5785 5787 5788 5790 5792 5793 5793 5794 5795 5796 5798 5800 5801 5802 5804 5805 5806 5807 5809 5810 5811 5813
5674 5674 5675 5675 5675 5676 5677 5678 5679 5679 5681 5683 5685 5686 5687 5688 5688 5688 5689 5690 5691 5692 5693 5694 5695 5697 5698 5700 5701 5703 5704 5706 5707 5708 5710 5711 5712 5713 5714 5715 5717 5719 5720 5722 5724 5725 5727 5730 5730 5730 5732 5734 5735 5737 5739 5741 5742 5744 5746 5749 5751 5752 5753 5755 5756 5757 5759 5761 5763 5764 5766 5767 5769 5770 5771 5772 5774 5775 5776 5778 5780 5782 5784 5785 5787 5788 5790 5790 5790 5792 5793 5795 5797 5798 5800 5801 5803 5804 5805 5806 5807 5809 5810
5665 5665 5666 5667 5668 5668 5669 5670 5670 5671 5674 5676 5678 5679 5680 5680 5681 5681 5682 5683 5684 5685 5686 5688 5689 5691 5692 5694 5695 5697 5699 5700 5701 5703 5704 5706 5707 5708 5709 5710 5712 5713 5715 5717 5719 5720 5722 5725 5726 5726 5728 5729 5731 5733 5735 5736 5738 5740 5742 5745 5747 5749 5750 5751 5752 5754 5755 5757 5759 5761 5762 5764 5765 5767 5768 5769 5770 5772 5773 5775 5776 5778 5780 5782 5784 5785 5786 5785 5786 5788 5790 5792 5794 5796 5797 5799 5800 5801 5802 5803 5805 5806 5807
5656 5657 5658 5659 5660 5660 5661 5662 5663 5664 5667 5669 5670 5671 5672 5673 5674 5674 5675 5676 5677 5679 5680 5681 5683 5685 5686 5688 5690 5691 5693 5694 5695 5697 5699 5700 5702 5703 5704 5705 5706 5708 5710 5712 5714 5715 5717 5718 5719 5721 5724 5725 5727 5729 5730 5732 5734 5736 5738 5740 5743 5745 5747 5748 5749 5750 5752 5754 5756 5757 5759 5760 5762 5763 5765 5766 5767 5769 5770 5771 5773 5775 5777 5779 5780 5782 5783 5783 5785 5786 5787 5789 5791 5793 5795 5796 5797 5798 5800 5801 5802 5803 5805
5647 5648 5649 5650 5651 5652 5653 5654 5655 5657 5660 5661 5662 5663 5664 5665 5666 5667 5668 5669 5670 5672 5673 5675 5676 5678 5680 5682 5684 5686 5687 5688 5690 5691 5693 5695 5696 5697 5699 5700 5701 5703 5705 5706 5708 5710 5712 5713 5714 5716 5719 5720 5722 5724 5726 5728 5730 5732 5734 5736 5739 5741 5743 5744 5745 5746 5748 5750 5752 5754 5755 5757 5758 5760 5761 5763 5764 5765 5767 5768 5770 5772 5774 5775 5777 5778 5780 5780 5781 5782 5783 5785 5788 5790 5792 5793 5794 5795 5797 5798 5799 5800 5802
5638 5639 5640 5641 5642 5643 5645 5646 5648 5650 5652 5653 5654 5655 5656 5657 5659 5660 5661 5662 5663 5665 5666 5668 5670 5672 5674 5676 5678 5680 5681 5682 5684 5685 5687 5688 5690 5692 5694 5695 5696 5698 5700 5701 5703 5705 5707 5708 5710 5712 5714 5715 5717 5720 5722 5724 5725 5727 5729 5731 5734 5736 5739 5740 5742 5743 5744 5746 5748 5750 5752 5753 5755 5756 5758 5759 5761 5762 5764 5765 5767 5769 5770 5772 5774 5775 5776 5777 5778 5779 5780 5783 5785 5787 5789 5790 5791 5793 5794 5795 5796 5798 5799
5629 5630 5631 5632 5633 5635 5636 5638 5640 5642 5644 5645 5646 5647 5648 5650 5651 5652 5654 5655 5656 5657 5659 5661 5663 5665 5668 5670 5672 5673 5675 5676 5677 5679 5680 5682 5685 5686 5688 5689 5691 5693 5695 5696 5697 5700 5702 5703 5705 5707 5709 5711 5713 5715 5717 5719 5721 5723 5725 5726 5728 5731 5734 5736 5738 5739 5740 5742 5744 5746 5748 5750 5751 5753 5754 5756 5757 5759 5760 5762 5764 5765 5767 5769 5770 5772 5773 5774 5775 5777 5778 5780 5782 5785 5786 5787 5789 5790 5791 5792 5794 5795 5797
5620 5621 5622 5623 5624 5626 5627 5629 5631 5634 5636 5637 5638 5639 5640 5642 5643 5645 5646 5647 5649 5650 5653 5655 5657 5659 5661 5663 5665 5666 5668 5670 5671 5672 5674 5676 5679 5680 5682 5684 5686 5688 5689 5690 5692 5695 5696 5698 5700 5703 5705 5707 5709 5710 5712 5715 5716 5718 5720 5722 5723 5726 5728 5731 5733 5735 5736 5738 5740 5742 5744 5746 5748 5749 5751 5753 5754 5755 5757 5759 5760 5762 5764 5766 5767 5769 5770 5771 5772 5773 5775 5777 5779 5781 5783 5785 5786 5787 5788 5790 5791 5793 5794
5611 5612 5612 5614 5615 5616 5618 5620 5623 5625 5627 5629 5630 5631 5633 5634 5635 5637 5638 5640 5641 5644 5646 5648 5650 5652 5654 5655 5657 5659 5661 5663 5665 5666 5668 5670 5672 5674 5676 5678 5680 5682 5684 5685 5687 5689 5691 5693 5695 5698 5700 5702 5704 5706 5708 5710 5712 5714 5716 5717 5719 5721 5724 5726 5728 5730 5732 5734 5736 5738 5740 5742 5744 5746 5747 5749 5750 5752 5754 5755 5757 5759 5760 5762 5764 5765 5767 5768 5769 5770 5772 5774 5776 5778 5780 5782 5783 5784 5785 5787 5789 5790 5792
5602 5603 5604 5605 5606 5607 5609 5611 5614 5616 5618 5620 5621 5623 5625 5626 5628 5629 5630 5632 5634 5636 5639 5640 5643 5645 5646 5648 5650 5653 5654 5656 5658 5660 5662 5665 5666 5668 5670 5672 5675 5676 5678 5681 5683 5684 5686 5688 5691 5693 5695 5697 5699 5701 5703 5705 5707 5710 5711 5713 5715 5716 5719 5721 5723 5725 5727 5729 5731 5734 5736 5738 5740 5742 5744 5745 5747 5748 5750 5752 5753 5755 5757 5759 5761 5762 5764 5765 5766 5767 5769 5771 5773 5775 5777 5779 5780 5781 5782 5784 5786 5788 5790
5594 5595 5595 5595 5596 5598 5600 5602 5604 5606 5609 5611 5613 5615 5616 5618 5619 5620 5623 5625 5627 5629 5631 5633 5635 5637 5639 5641 5644 5646 5647 5650 5652 5654 5656 5658 5660 5661 5664 5666 5668 5670 5672 5676 5678 5679 5681 5683 5685 5688 5690 5692 5694 5696 5698 5700 5703 5705 5707 5709 5710 5712 5714 5716 5718 5720 5722 5725 5727 5729 5731 5734 5736 5738 5740 5741 5743 5745 5746 5748 5750 5752 5754 5755 5757 5759 5761 5762 5763 5765 5766 5768 5770 5772 5774 5775 5777 5779 5780 5781 5783 5785 5787
5587 5587 5588 5588 5588 5590 5591 5593 5595 5597 5600 5602 5604 5605 5608 5610 5611 5613 5615 5617 5620 5621 5623 5625 5627 5629 5631 5635 5637 5639 5640 5643 5645 5647 5649 5651 5653 5655 5657 5660 5662 5664 5667 5670 5671 5673 5676 5678 5680 5682 5685 5687 5689 5691 5693 5696 5698 5700 5702 5704 5706 5708 5710 5712 5714 5716 5718 5720 5722 5725 5727 5730 5731 5734 5735 5737 5739 5740 5742 5744 5746 5748 5750 5752 5754 5756 5757 5759 5760 5762 5763 5765 5767 5769 5771 5771 5772 5775 5779 5780 5780 5782 5784
5581 5580 5581 5581 5581 5582 5583 5585 5586 5588 5590 5592 5595 5596 5599 5600 5602 5605 5607 5609 5611 5614 5616 5617 5619 5622 5624 5627 5630 5632 5634 5636 5638 5640 5642 5644 5646 5649 5651 5653 5656 5658 5661 5663 5666 5668 5670 5673 5675 5677 5679 5682 5684 5686 5688 5691 5693 5695 5698 5700 5702 5704 5706 5708 5710 5711 5714 5715 5718 5720 5722 5725 5727 5729 5731 5733 5735 5737 5739 5740 5743 5745 5746 5748 5750 5752 5754 5756 5757 5759 5760 5762 5764 5766 5768 5769 5770 5772 5774 5776 5778 5780 5781
5575 5575 5575 5575 5575 5575 5576 5577 5578 5580 5582 5584 5585 5588 5590 5592 5594 5596 5599 5601 5603 5606 5608 5610 5612 5615 5617 5620 5622 5625 5627 5629 5630 5632 5635 5637 5640 5642 5645 5647 5650 5652 5655 5657 5660 5662 5665 5667 5669 5671 5674 5676 5679 5681 5683 5686 5688 5690 5693 5695 5697 5700 5701 5703 5705 5707 5709 5711 5713 5715 5718 5720 5723 5725 5727 5729 5731 5733 5735 5737 5739 5741 5743 5745 5747 5749 5751 5752 5754 5755 5757 5759 5761 5763 5765 5766 5768 5769 5771 5773 5775 5777 5778
5570 5570 5570 5569 5569 5569 5569 5570 5570 5572 5574 5575 5577 5579 5581 5583 5585 5588 5590 5592 5595 5598 5600 5603 5605 5608 5610 5612 5614 5617 5620 5621 5623 5625 5628 5630 5632 5635 5639 5641 5644 5646 5649 5651 5654 5656 5659 5661 5664 5666 5669 5671 5673 5676 5678 5681 5683 5685 5688 5690 5693 5695 5697 5699 5701 5703 5705 5706 5709 5711 5714 5716 5718 5720 5722 5725 5726 5729 5731 5733 5735 5737 5739 5741 5743 5745 5747 5749 5751 5752 5754 5756 5758 5760 5762 5764 5765 5767 5768 5770 5772 5774 5775
5566 5565 5565 5564 5564 5564 5563 5563 5564 5565 5566 5567 5569 5571 5573 5574 5576 5579 5581 5584 5586 5589 5592 5595 5598 5600 5602 5604 5607 5610 5612 5614 5615 5618 5620 5623 5626 5630 5633 5636 5638 5641 5643 5645 5648 5651 5653 5656 5658 5661 5663 5666 5668 5671 5673 5675 5678 5680 5683 5685 5687 5690 5692 5695 5697 5699 5700 5702 5704 5706 5709 5711 5714 5716 5718 5720 5722 5725 5727 5729 5731 5733 5735 5737 5739 5741 5743 5745 5747 5749 5751 5753 5755 5757 5759 5760 5762 5763 5765 5767 5769 5771 5772
5562 5561 5560 5560 5559 5559 5558 5558 5558 5558 5559 5560 5561 5563 5564 5565 5568 5570 5572 5575 5578 5581 5583 5586 5590 5592 5595 5597 5600 5602 5604 5606 5608 5610 5613 5617 5621 5625 5627 5630 5632 5635 5637 5639 5642 5645 5647 5650 5652 5655 5657 5660 5663 5665 5668 5670 5673 5675 5678 5680 5682 5685 5687 5690 5692 5694 5695 5697 5700 5702 5704 5706 5709 5711 5713 5716 5718 5720 5723 5725 5727 5729 5731 5734 5735 5738 5740 5742 5744 5746 5748 5750 5751 5753 5755 5757 5759 5760 5761 5764 5766 5768 5770
5558 5557 5556 5555 5555 5554 5553 5553 5553 5553 5553 5554 5555 5555 5556 5557 5560 5562 5564 5566 5569 5572 5575 5578 5581 5584 5587 5591 5594 5595 5597 5599 5601 5604 5608 5612 5615 5618 5620 5622 5625 5628 5630 5633 5635 5638 5641 5643 5646 5649 5652 5655 5657 5660 5662 5665 5667 5670 5672 5675 5678 5680 5682 5685 5687 5689 5691 5693 5695 5697 5699 5701 5704 5706 5709 5711 5714 5716 5718 5721 5723 5725 5728 5730 5732 5734 5736 5738 5740 5742 5744 5746 5748 5750 5752 5754 5756 5757 5758 5760 5763 5765 5767
5553 5553 5552 5551 5550 5550 5549 5548 5548 5548 5548 5548 5548 5548 5549 5550 5552 5554 5555 5558 5560 5563 5566 5570 5573 5576 5580 5583 5586 5588 5590 5592 5595 5598 5603 5606 5607 5609 5611 5614 5617 5620 5623 5627 5630 5632 5635 5638 5640 5643 5646 5649 5652 5654 5657 5660 5662 5664 5667 5670 5672 5675 5677 5680 5682 5684 5686 5688 5690 5692 5694 5696 5698 5701 5704 5707 5709 5712 5714 5716 5719 5721 5724 5726 5728 5730 5732 5734 5736 5739 5741 5743 5745 5747 5749 5751 5754 5755 5755 5757 5760 5762 5764
5549 5548 5548 5547 5546 5545 5545 5544 5543 5543 5543 5542 5542 5542 5543 5544 5545 5546 5548 5550 5552 5555 5558 5561 5564 5567 5571 5575 5578 5580 5583 5585 5588 5592 5596 5597 5598 5600 5604 5607 5611 5614 5618 5622 5625 5627 5629 5632 5635 5638 5641 5644 5646 5649 5652 5654 5656 5659 5662 5665 5667 5670 5672 5675 5677 5679 5681 5683 5685 5687 5689 5691 5693 5696 5699 5702 5705 5707 5710 5712 5715 5717 5719 5722 5725 5726 5729 5731 5733 5735 5737 5740 5741 5744 5745 5747 5750 5752 5753 5755 5758 5760 5760
5544 5544 5543 5542 5541 5541 5540 5539 5539 5538 5538 5537 5537 5537 5537 5538 5538 5539 5540 5542 5544 5546 5549 5552 5555 5559 5563 5567 5570 5573 5576 5579 5582 5585 5588 5588 5590 5594 5598 5602 5606 5611 5614 5615 5617 5620 5623 5626 5629 5632 5635 5638 5641 5643 5646 5648 5651 5654 5656 5659 5661 5664 5667 5669 5672 5674 5676 5678 5680 5683 5684 5686 5689 5692 5695 5697 5700 5703 5705 5708 5710 5713 5715 5718 5720 5722 5725 5727 5729 5731 5733 5736 5738 5740 5742 5744 5746 5748 5749 5750 5753 5756 5757
5539 5539 5538 5538 5537 5536 5536 5535 5534 5534 5533 5533 5532 5532 5532 5532 5532 5533 5534 5535 5537 5538 5540 5544 5547 5551 5555 5559 5562 5565 5569 5572 5575 5577 5580 5580 5584 5589 5593 5597 5600 5603 5604 5606 5609 5613 5617 5620 5623 5626 5630 5632 5635 5637 5640 5642 5645 5648 5651 5654 5656 5659 5661 5664 5666 5669 5672 5674 5676 5678 5680 5682 5685 5687 5690 5693 5695 5698 5701 5703 5706 5709 5711 5714 5716 5718 5721 5723 5725 5727 5730 5732 5734 5736 5739 5740 5742 5744 5746 5747 5749 5751 5753
5534 5534 5533 5533 5532 5532 5531 5530 5530 5529 5528 5528 5527 5527 5527 5527 5527 5527 5528 5529 5530 5531 5533 5535 5538 5542 5546 5550 5554 5557 5561 5564 5567 5569 5572 5575 5578 5583 5586 5588 5590 5591 5594 5600 5605 5608 5612 5615 5617 5620 5623 5625 5628 5631 5633 5637 5640 5642 5645 5648 5651 5653 5656 5659 5661 5664 5667 5669 5672 5674 5676 5678 5681 5683 5686 5688 5691 5694 5696 5699 5701 5704 5706 5709 5711 5714 5717 5719 5721 5723 5725 5728 5730 5733 5735 5737 5739 5741 5743 5745 5746 5747 5750
5529 5529 5528 5528 5527 5527 5526 5525 5525 5524 5524 5523 5522 5522 5522 5522 5522 5522 5522 5523 5524 5525 5526 5528 5530 5534 5538 5541 5545 5549 5552 5556 5559 5562 5565 5567 5571 5575 5577 5579 5582 5586 5593 5599 5601 5602 5605 5609 5610 5612 5615 5619 5622 5625 5628 5631 5634 5637 5640 5643 5645 5648 5651 5653 5656 5659 5661 5664 5667 5670 5672 5674 5676 5679 5681 5684 5686 5689 5692 5695 5697 5700 5702 5705 5707 5710 5713 5715 5717 5720 5722 5724 5726 5729 5731 5733 5735 5738 5740 5743 5744 5745 5747
5523 5523 5523 5523 5522 5522 5521 5521 5520 5519 5519 5518 5518 5518 5517 5517 5517 5517 5517 5517 5518 5518 5520 5521 5523 5526 5529 5532 5536 5540 5544 5548 5551 5554 5557 5560 5564 5567 5569 5573 5579 5584 5587 5590 5590 5592 5596 5599 5601 5604 5607 5612 5616 5619 5623 5626 5629 5631 5635 5638 5640 5643 5645 5648 5651 5654 5656 5659 5662 5665 5667 5670 5672 5675 5677 5679 5682 5685 5687 5690 5693 5695 5698 5700 5703 5705 5708 5711 5714 5716 5718 5720 5722 5725 5727 5730 5732 5734 5736 5739 5741 5742 5743
5518 5518 5518 5517 5517 5517 5516 5515 5515 5515 5514 5514 5513 5513 5512 5512 5512 5512 5512 5512 5512 5512 5514 5515 5516 5518 5520 5523 5527 5531 5536 5540 5543 5546 5550 5553 5556 5560 5563 5567 5571 5574 5575 5578 5581 5584 5588 5592 5596 5599 5601 5605 5610 5613 5616 5620 5625 5628 5630 5632 5635 5637 5640 5643 5646 5649 5651 5654 5657 5660 5662 5665 5668 5670 5672 5675 5678 5680 5683 5685 5688 5691 5693 5696 5699 5701 5704 5707 5710 5712 5714 5716 5719 5721 5723 5726 5728 5730 5733 5735 5737 5740 5741
5512 5512 5512 5512 5512 5511 5511 5510 5510 5510 5509 5509 5508 5508 5508 5507 5507 5507 5506 5506 5506 5507 5507 5508 5510 5511 5513 5515 5519 5523 5527 5532 5535 5538 5542 5545 5548 5552 5555 5558 5561 5565 5569 5572 5576 5581 5585 5590 5593 5594 5595 5600 5605 5608 5611 5616 5621 5625 5627 5629 5630 5632 5635 5638 5641 5643 5646 5649 5652 5655 5657 5660 5663 5665 5668 5671 5673 5676 5678 5681 5684 5686 5689 5692 5694 5697 5700 5703 5705 5708 5710 5713 5715 5717 5720 5722 5725 5727 5729 5732 5734 5737 5740
5506 5506 5507 5507 5506 5506 5506 5505 5505 5505 5504 5504 5504 5503 5503 5502 5502 5502 5501 5501 5501 5501 5502 5503 5504 5505 5505 5508 5511 5515 5519 5523 5526 5530 5534 5537 5541 5545 5547 5550 5554 5559 5564 5567 5571 5575 5578 5582 5584 5586 5588 5596 5600 5602 5605 5610 5614 5618 5622 5623 5625 5627 5630 5633 5635 5638 5641 5644 5646 5650 5652 5655 5658 5661 5663 5666 5669 5671 5674 5677 5680 5682 5685 5687 5690 5693 5696 5699 5701 5704 5706 5709 5711 5714 5716 5719 5721 5723 5725 5728 5731 5734 5736
5501 5501 5501 5501 5501 5501 5500 5500 5500 5500 5499 5499 5499 5498 5498 5497 5497 5497 5496 5496 5496 5496 5496 5497 5497 5497 5499 5501 5504 5507 5510 5513 5517 5522 5526 5530 5534 5536 5540 5544 5548 5552 5556 5559 5563 5567 5571 5574 5576 5579 5585 5590 5592 5594 5599 5603 5607 5611 5615 5619 5620 5622 5625 5627 5630 5633 5635 5638 5641 5645 5647 5650 5653 5656 5659 5661 5664 5667 5670 5672 5675 5678 5680 5683 5686 5689 5691 5694 5697 5700 5703 5705 5708 5710 5713 5715 5717 5719 5722 5724 5728 5730 5733
5495 5495 5495 5495 5495 5495 5495 5495 5495 5494 5494 5494 5493 5493 5493 5492 5492 5492 5491 5491 5491 5491 5491 5490 5490 5491 5493 5495 5496 5499 5501 5505 5509 5514 5519 5522 5525 5528 5532 5537 5540 5544 5547 5552 5557 5561 5565 5568 5571 5575 5580 5583 5585 5589 5594 5597 5600 5605 5609 5612 5614 5616 5619 5622 5625 5628 5630 5633 5636 5639 5642 5645 5648 5651 5654 5656 5659 5662 5665 5668 5670 5673 5676 5679 5682 5685 5687 5690 5693 5696 5699 5702 5705 5707 5709 5711 5713 5715 5718 5720 5724 5726 5729